Wind_Speed
6 7 7 6 6 6 5 4 3 3 4 3 1 5 6 7 9 11 13 15 21 22 24 25 28 29 32 33 34 37 37 38 40 41 42 46 44 44 42 38 37 43 35 32 32 37 38
6 7 7 5 5 4 4 5 5 4 2 3 3 5 5 7 8 9 12 16 17 19 23 27 30 32 32 36 38 40 40 39 42 43 43 41 47 47 45 46 45 44 40 40 43 40 43
5 5 4 4 5 5 5 7 4 1 1 4 8 8 11 13 13 12 14 15 16 22 25 27 29 33 35 36 38 40 39 41 44 44 42 50 49 54 55 49 51 52 47 42 43 42 49
4 4 4 6 5 4 5 5 2 5 6 9 10 12 17 17 17 19 20 17 17 20 25 28 33 34 36 37 38 41 42 45 46 48 50 55 55 57 62 57 57 59 60 48 43 50 53
5 5 5 5 8 6 5 7 8 10 13 14 16 18 22 23 21 22 19 20 23 25 31 33 35 37 38 39 40 41 45 48 51 55 57 59 59 63 60 64 64 67 66 59 47 49 53
6 6 7 9 11 9 9 12 15 18 20 23 24 25 26 28 28 25 25 28 28 30 33 36 37 37 38 40 41 43 49 52 54 56 60 62 67 66 66 71 68 67 61 64 56 50 56
6 8 10 9 10 13 15 17 22 23 26 27 28 30 33 34 31 29 30 32 34 38 37 39 44 45 40 42 41 49 54 54 52 58 60 66 69 70 73 75 76 72 70 60 67 68 70
10 12 13 14 15 17 20 22 24 24 23 26 29 34 34 35 34 32 35 36 36 39 43 43 48 48 43 40 46 55 57 56 56 62 66 72 74 77 79 82 81 79 79 73 73 75 83
16 18 21 21 23 24 27 29 30 31 31 34 34 35 34 33 35 38 40 39 40 42 46 47 47 45 42 47 57 57 59 61 63 69 73 76 77 84 84 87 84 83 81 78 74 80 90
27 27 27 28 29 29 29 31 32 33 37 37 38 36 35 36 39 38 40 41 43 45 50 50 42 42 49 56 59 59 63 66 69 72 75 79 83 87 90 90 90 86 87 83 84 85 94
33 33 33 34 33 34 33 34 35 33 33 36 38 40 38 39 40 39 41 43 46 49 50 46 44 51 59 60 61 62 66 71 73 74 79 83 85 89 95 96 92 94 92 89 94 96 99
35 37 38 38 37 35 35 34 33 32 33 33 36 36 39 43 46 47 49 47 48 48 46 46 50 56 59 62 62 66 70 73 73 76 82 85 90 94 98 96 99 96 97 98 96 104 104
36 35 38 39 38 39 39 37 38 37 37 37 38 39 43 47 51 52 51 52 49 45 48 51 56 58 62 63 66 68 72 76 78 81 85 86 89 96 100 102 102 102 106 105 113 110 116
40 41 43 40 40 41 41 42 42 43 42 41 42 44 46 48 51 51 54 50 50 51 54 56 58 63 66 71 72 73 75 77 81 85 91 93 94 98 100 103 104 106 110 111 115 115 119
49 50 47 45 45 45 45 46 46 47 48 49 47 47 48 49 48 51 51 52 53 53 54 58 62 65 70 74 74 73 77 82 86 90 94 98 99 103 105 106 108 111 112 114 119 121 125
52 52 52 54 53 48 46 47 48 48 49 48 49 51 50 51 50 52 54 54 53 56 60 63 66 69 71 73 76 79 81 83 88 93 97 99 104 105 105 110 113 113 117 121 123 131 131
58 56 54 53 55 57 56 55 52 53 53 52 52 53 52 53 53 53 55 57 59 62 64 67 69 72 73 75 80 83 86 88 91 96 100 104 106 108 108 114 120 118 128 127 126 134 137
63 61 58 58 58 57 57 58 57 56 57 59 59 59 57 58 59 59 61 61 64 67 68 69 70 73 78 80 82 86 89 93 97 100 101 107 110 111 111 120 121 123 130 132 135 136 134
72 66 63 59 59 61 58 59 61 60 58 63 64 63 62 61 60 63 65 68 66 67 70 70 74 78 80 85 88 89 93 95 99 102 104 108 110 113 116 123 126 126 133 131 141 137 135
82 77 72 70 67 65 62 64 63 64 66 64 65 67 66 64 66 66 69 73 74 74 74 75 78 81 86 89 92 94 95 96 100 103 107 108 112 117 118 127 130 130 136 135 143 142 133
82 84 83 81 73 72 71 70 69 71 70 72 71 70 69 71 70 71 73 74 74 76 77 79 82 84 88 90 96 97 99 99 103 106 107 112 117 118 124 128 129 133 137 141 145 141 136
96 88 91 88 81 79 82 83 84 80 79 77 75 76 76 75 73 76 78 76 78 79 79 82 84 89 91 93 95 95 101 103 105 105 110 114 121 122 123 128 132 133 139 141 147 140 135
107 97 96 95 89 90 92 92 89 93 85 83 84 82 82 81 83 83 82 83 79 81 83 84 87 91 94 96 99 99 103 108 109 110 117 122 121 122 125 128 135 138 142 145 146 142 133
120 111 109 102 98 96 95 96 96 97 97 91 88 88 87 85 88 88 86 83 84 84 85 87 92 94 96 99 101 105 108 110 114 115 120 120 124 124 130 133 137 142 142 148 150 141 138
125 122 117 119 111 108 104 104 100 98 98 94 90 89 89 89 88 89 88 87 90 87 87 90 93 96 97 101 105 107 109 112 114 116 120 122 125 129 135 140 141 142 143 148 149 141 136
125 125 121 120 121 115 112 112 112 109 103 98 90 95 94 95 93 93 92 94 93 93 94 95 97 102 103 105 109 110 112 116 116 120 120 122 127 133 138 144 147 147 145 150 144 141 131
121 126 127 124 124 124 121 120 120 119 109 102 95 99 99 96 97 95 94 98 95 95 97 99 99 103 106 109 110 112 113 116 121 122 123 125 129 136 140 146 146 150 148 151 144 137 126
122 122 128 130 125 122 119 124 122 120 119 103 104 103 103 102 102 98 98 98 102 99 104 105 106 108 110 112 115 116 116 119 122 125 126 128 132 139 144 147 149 151 151 148 139 132 122
111 125 128 124 123 116 116 121 124 126 118 116 110 108 108 104 104 105 101 98 99 102 107 109 111 113 113 114 118 119 121 125 128 126 125 129 134 140 146 147 150 146 151 140 138 129 120
Wind_Direction
287 282 273 260 243 235 227 213 184 173 153 142 330 323 335 342 339 3 16 13 9 19 18 15 14 17 17 17 18 17 17 19 14 15 9 14 9 4 7 358 356 355 327 331 316 302 306
266 273 280 263 244 207 181 178 174 156 148 242 308 339 349 347 348 351 3 3 12 14 5 0 4 6 2 3 2 5 6 8 9 6 7 6 4 4 359 354 353 343 338 319 312 312 307
248 263 248 217 214 201 201 182 160 138 261 320 326 328 337 332 327 327 339 343 340 343 342 350 350 354 355 356 355 354 356 358 0 0 3 360 359 357 352 350 351 347 339 332 321 312 306
212 210 205 191 215 216 187 181 255 302 313 310 328 324 317 319 333 331 334 337 335 338 336 334 342 343 345 344 344 344 347 350 352 353 356 354 356 353 350 344 344 341 342 329 322 306 305
203 202 192 198 193 202 225 263 280 292 303 314 313 321 332 326 322 327 324 324 328 330 331 334 335 333 336 337 336 337 343 344 344 348 348 348 348 348 350 349 344 345 345 328 321 325 305
237 217 201 188 199 231 259 288 294 294 297 301 312 315 318 318 320 324 318 317 323 325 327 330 330 328 331 333 333 333 338 336 338 343 344 346 345 346 345 341 344 341 340 341 322 316 313
231 207 196 212 236 255 272 283 296 294 297 306 308 311 313 313 310 315 317 317 315 318 318 325 325 324 324 326 327 334 336 336 335 338 340 341 342 342 341 339 341 339 337 328 331 323 320
228 227 238 247 260 263 271 281 297 295 297 299 298 303 305 310 306 312 313 312 313 317 317 318 321 322 325 325 325 332 334 334 332 335 337 338 339 339 340 341 341 342 340 334 330 326 321
263 265 266 268 270 279 284 287 292 295 298 296 297 301 301 308 308 305 307 311 313 316 314 317 322 326 325 324 327 330 332 333 333 334 336 337 336 337 341 341 341 343 335 334 326 322 323
276 276 278 277 284 287 290 294 295 296 297 297 295 297 300 302 306 310 311 311 312 312 313 319 322 320 321 324 325 326 329 331 332 332 333 335 334 336 338 340 340 338 337 329 325 322 321
277 278 279 283 287 288 288 290 291 292 294 294 294 297 302 302 304 309 310 310 308 310 315 317 315 316 321 322 322 324 327 330 330 332 334 335 336 336 339 340 340 337 335 333 329 326 320
273 277 279 281 283 285 289 291 290 290 290 291 296 300 303 304 305 306 305 307 309 312 315 315 315 317 319 320 322 324 326 327 328 331 333 335 335 335 338 340 339 337 337 331 329 330 324
265 267 274 278 279 282 283 284 286 286 287 290 293 294 297 300 301 303 306 310 311 312 312 313 315 317 319 319 322 324 324 325 327 329 329 331 334 335 338 339 339 335 336 333 335 332 328
270 271 270 269 273 277 278 279 280 281 283 285 288 292 295 297 300 303 308 309 313 311 309 311 312 314 316 319 320 322 325 325 326 329 330 330 333 333 337 338 338 335 337 336 336 337 331
277 277 273 273 274 274 274 276 278 281 284 287 289 290 291 293 297 301 303 308 312 311 312 310 311 314 317 318 319 321 322 324 325 327 327 330 332 334 336 337 337 336 337 337 337 336 336
273 275 277 279 278 276 279 283 285 286 288 291 292 294 296 299 301 302 302 307 307 308 310 312 313 314 316 317 318 320 321 322 324 326 327 330 332 334 336 335 337 336 337 337 340 337 337
273 273 270 275 278 280 282 283 283 286 288 291 292 293 296 297 299 301 303 303 305 308 311 311 311 314 316 318 318 319 321 322 323 325 328 329 332 334 334 336 337 338 338 337 337 337 338
271 272 272 273 274 276 279 282 281 285 288 290 291 293 294 297 300 302 302 304 304 308 310 310 312 314 315 315 316 318 319 321 323 325 328 330 333 333 334 335 336 336 337 337 337 337 337
270 270 268 270 273 277 278 279 281 284 286 291 292 293 294 297 299 299 300 303 303 306 309 310 311 313 312 312 314 315 317 320 323 324 328 332 332 334 334 335 336 337 336 336 338 337 338
267 268 268 269 270 272 275 279 279 284 288 285 290 293 293 295 296 296 297 299 302 304 307 307 310 310 311 314 313 313 315 319 322 325 328 330 332 334 334 335 336 336 336 336 338 338 340
262 265 267 268 270 269 271 275 278 281 284 286 287 288 289 291 293 295 296 299 303 305 307 308 309 311 312 312 313 315 317 319 322 325 327 328 330 333 333 334 335 335 334 337 337 338 340
259 262 264 265 266 267 270 272 276 279 281 282 285 288 287 287 289 292 295 299 300 303 306 307 308 311 312 312 313 314 316 318 321 323 325 327 329 333 334 335 334 334 334 337 339 338 339
262 261 262 264 264 268 272 271 275 277 276 279 282 283 286 286 288 289 292 296 298 301 302 304 306 308 310 311 313 315 315 318 320 323 324 326 330 333 332 334 334 333 333 338 337 340 338
266 264 263 260 263 266 269 267 271 275 273 276 279 282 283 283 286 289 293 292 297 299 302 303 305 306 309 310 312 314 316 317 320 322 324 328 329 333 331 332 333 333 333 337 339 339 337
259 260 259 264 261 264 269 268 268 268 271 270 277 277 281 282 285 288 291 294 297 299 300 302 305 308 309 310 312 315 317 317 319 320 323 325 328 331 333 332 332 332 335 336 340 339 338
254 255 257 260 260 262 265 268 268 268 268 269 273 276 277 282 284 285 288 292 296 298 300 301 302 305 307 308 310 312 315 316 319 321 322 325 327 328 332 331 332 332 334 337 338 338 337
247 251 253 254 255 258 262 263 266 267 265 268 269 272 275 279 281 282 285 289 292 294 298 300 302 303 305 307 309 311 314 316 318 321 323 323 326 328 329 330 332 331 332 336 336 337 335
242 245 249 250 254 255 258 258 262 265 266 264 267 269 272 275 278 280 282 287 289 293 295 297 300 302 304 305 309 312 314 314 317 320 321 323 325 327 327 327 330 331 332 336 336 335 334
245 236 244 247 247 248 251 255 259 261 265 264 263 268 269 270 273 277 280 285 287 290 292 295 298 301 303 306 308 310 312 314 317 319 320 323 325 325 327 327 327 328 332 335 336 333 334
Height
10816 10816 10815 10815 10814 10813 10812 10810 10810 10810 10809 10808 10808 10807 10805 10803 10801 10799 10797 10794 10792 10788 10784 10780 10776 10771 10766 10762 10757 10752 10748 10743 10739 10734 10731 10727 10723 10720 10716 10712 10708 10704 10697 10693 10688 10681 10677
10813 10813 10813 10814 10813 10812 10812 10811 10811 10811 10810 10808 10807 10806 10804 10802 10800 10798 10796 10793 10790 10786 10782 10778 10774 10770 10765 10760 10755 10750 10745 10740 10735 10731 10726 10722 10718 10714 10709 10705 10701 10696 10691 10683 10677 10671 10664
10811 10812 10812 10813 10813 10813 10813 10812 10812 10811 10810 10809 10807 10805 10803 10801 10799 10796 10794 10791 10787 10783 10780 10775 10771 10767 10762 10758 10752 10747 10741 10736 10731 10726 10721 10716 10711 10707 10703 10697 10691 10685 10682 10676 10667 10661 10650
10810 10811 10812 10813 10814 10815 10815 10814 10813 10812 10810 10808 10806 10804 10801 10799 10797 10794 10791 10788 10784 10780 10776 10772 10767 10763 10758 10753 10748 10742 10737 10731 10726 10721 10715 10709 10703 10696 10692 10686 10680 10673 10667 10660 10656 10646 10635
10810 10811 10811 10813 10814 10815 10815 10814 10812 10810 10809 10807 10804 10802 10799 10796 10794 10791 10788 10785 10781 10777 10772 10768 10764 10758 10753 10747 10742 10736 10731 10726 10720 10714 10707 10700 10694 10687 10680 10674 10668 10661 10647 10640 10637 10628 10617
10811 10811 10811 10812 10813 10813 10813 10812 10810 10808 10806 10803 10800 10798 10796 10792 10790 10787 10784 10780 10776 10773 10769 10763 10758 10754 10748 10742 10736 10731 10725 10720 10714 10707 10699 10691 10684 10676 10667 10659 10652 10643 10636 10623 10613 10608 10598
10812 10811 10811 10810 10811 10812 10812 10810 10809 10807 10804 10800 10798 10795 10791 10788 10786 10783 10779 10775 10771 10767 10763 10758 10753 10747 10742 10736 10731 10726 10720 10714 10707 10700 10693 10684 10676 10667 10658 10646 10637 10624 10613 10604 10592 10581 10574
10812 10811 10811 10810 10809 10808 10808 10807 10806 10804 10801 10798 10794 10791 10788 10784 10780 10777 10774 10769 10765 10761 10755 10751 10746 10740 10734 10729 10724 10718 10711 10704 10697 10690 10684 10672 10661 10652 10641 10629 10619 10606 10593 10581 10574 10563 10556
10810 10809 10809 10807 10805 10804 10803 10802 10800 10798 10795 10792 10789 10785 10782 10778 10775 10772 10768 10764 10759 10754 10748 10744 10739 10733 10727 10721 10714 10708 10701 10692 10686 10676 10665 10657 10648 10638 10626 10615 10601 10590 10577 10566 10556 10547 10532
10808 10807 10805 10804 10802 10800 10799 10797 10795 10792 10789 10786 10783 10779 10776 10772 10769 10765 10761 10757 10752 10747 10741 10737 10731 10725 10719 10712 10704 10696 10688 10681 10672 10664 10655 10646 10635 10625 10614 10600 10587 10573 10562 10549 10537 10526 10513
10803 10802 10801 10799 10797 10795 10794 10792 10789 10786 10783 10780 10777 10774 10771 10766 10762 10757 10753 10748 10743 10738 10734 10729 10722 10715 10710 10704 10696 10686 10678 10671 10662 10654 10644 10634 10622 10610 10599 10584 10571 10557 10542 10530 10517 10501 10491
10797 10796 10794 10793 10790 10788 10786 10784 10782 10779 10776 10773 10770 10767 10764 10760 10755 10750 10744 10739 10734 10730 10725 10719 10713 10707 10699 10691 10684 10677 10667 10659 10651 10642 10630 10618 10606 10594 10581 10569 10554 10540 10527 10513 10499 10480 10461
10788 10787 10787 10786 10784 10782 10779 10777 10774 10771 10767 10764 10761 10758 10755 10751 10747 10742 10737 10732 10727 10721 10716 10711 10703 10697 10689 10682 10673 10666 10656 10643 10635 10628 10621 10615 10600 10582 10567 10552 10539 10525 10510 10490 10471 10450 10427
10780 10778 10777 10775 10775 10773 10772 10769 10766 10762 10759 10756 10752 10749 10746 10742 10738 10733 10728 10723 10719 10712 10706 10701 10695 10686 10679 10672 10662 10654 10646 10635 10624 10614 10603 10590 10583 10569 10554 10538 10519 10503 10487 10469 10445 10427 10411
10771 10770 10768 10767 10765 10762 10760 10758 10756 10753 10750 10747 10743 10740 10736 10732 10727 10722 10717 10713 10708 10702 10695 10689 10683 10677 10667 10656 10650 10646 10634 10622 10611 10601 10586 10571 10565 10547 10531 10516 10498 10480 10463 10443 10427 10407 10382
10759 10759 10758 10757 10755 10753 10750 10748 10746 10743 10741 10737 10733 10730 10727 10722 10718 10713 10707 10702 10697 10691 10685 10678 10672 10664 10656 10649 10639 10628 10620 10612 10598 10586 10571 10557 10543 10531 10518 10499 10485 10465 10445 10418 10400 10374 10354
10746 10746 10745 10745 10744 10742 10740 10737 10735 10733 10731 10728 10724 10720 10717 10712 10707 10703 10696 10690 10684 10679 10674 10667 10658 10651 10642 10635 10624 10615 10604 10596 10583 10572 10557 10539 10528 10511 10497 10481 10462 10442 10422 10404 10381 10354 10324
10731 10732 10732 10731 10730 10729 10727 10725 10724 10722 10719 10716 10713 10710 10705 10700 10696 10691 10685 10679 10673 10668 10662 10654 10645 10637 10629 10619 10613 10600 10590 10577 10566 10554 10543 10526 10510 10494 10478 10460 10442 10421 10399 10380 10358 10336 10304
10718 10718 10717 10716 10716 10716 10714 10713 10711 10710 10708 10704 10700 10698 10694 10690 10685 10679 10673 10667 10662 10657 10649 10643 10633 10625 10615 10604 10596 10586 10576 10563 10551 10537 10523 10509 10494 10478 10460 10445 10425 10401 10379 10361 10340 10318 10294
10700 10704 10703 10702 10701 10700 10700 10699 10697 10696 10694 10692 10690 10685 10680 10676 10672 10668 10661 10654 10649 10644 10636 10629 10621 10611 10602 10591 10580 10571 10561 10549 10536 10522 10507 10492 10475 10462 10440 10421 10403 10381 10356 10335 10315 10294 10274
10679 10682 10685 10685 10685 10685 10684 10683 10681 10680 10679 10678 10675 10672 10669 10663 10658 10653 10647 10642 10636 10630 10623 10615 10609 10598 10588 10580 10568 10554 10542 10534 10522 10505 10492 10478 10461 10445 10426 10407 10389 10365 10342 10322 10298 10273 10245
10655 10660 10664 10667 10667 10668 10670 10667 10665 10664 10662 10662 10661 10657 10653 10649 10646 10640 10632 10630 10623 10616 10610 10601 10595 10583 10573 10564 10551 10541 10530 10518 10506 10494 10477 10463 10445 10430 10409 10392 10376 10353 10325 10304 10278 10254 10231
10630 10637 10642 10645 10647 10646 10648 10650 10648 10648 10646 10645 10644 10643 10639 10633 10628 10625 10619 10615 10610 10602 10597 10588 10579 10570 10560 10549 10537 10526 10513 10500 10488 10471 10460 10443 10428 10412 10396 10376 10356 10332 10309 10290 10261 10230 10207
10600 10613 10619 10621 10622 10624 10625 10627 10628 10628 10629 10628 10625 10624 10622 10621 10612 10606 10605 10599 10594 10589 10580 10573 10564 10555 10546 10534 10523 10512 10500 10486 10472 10456 10441 10424 10409 10393 10379 10360 10341 10317 10288 10270 10247 10213 10187
10580 10584 10594 10596 10599 10601 10601 10601 10606 10606 10610 10611 10608 10605 10603 10603 10597 10591 10588 10583 10578 10572 10565 10554 10549 10540 10528 10518 10509 10498 10489 10474 10462 10446 10429 10412 10392 10374 10356 10340 10322 10295 10275 10254 10237 10211 10178
10552 10556 10565 10570 10574 10577 10578 10575 10576 10579 10586 10593 10592 10584 10582 10581 10581 10574 10572 10568 10563 10557 10551 10540 10533 10524 10513 10501 10491 10479 10470 10456 10446 10433 10412 10395 10376 10357 10335 10316 10299 10279 10258 10235 10214 10192 10167
10521 10528 10536 10541 10547 10553 10557 10552 10546 10546 10562 10571 10572 10564 10562 10559 10560 10556 10555 10551 10548 10542 10535 10524 10516 10507 10497 10485 10475 10466 10457 10439 10424 10411 10395 10379 10362 10339 10318 10299 10284 10261 10242 10218 10192 10174 10153
10494 10500 10500 10512 10521 10526 10530 10526 10527 10521 10526 10548 10547 10545 10543 10537 10538 10539 10538 10537 10532 10526 10517 10508 10500 10489 10480 10467 10458 10448 10437 10423 10407 10392 10374 10359 10340 10324 10306 10287 10265 10246 10228 10208 10184 10158 10138
10457 10469 10470 10484 10494 10499 10501 10502 10503 10495 10506 10513 10522 10522 10519 10516 10515 10518 10522 10521 10514 10509 10499 10491 10482 10473 10463 10451 10440 10431 10419 10405 10390 10376 10359 10343 10323 10304 10288 10268 10247 10227 10205 10186 10166 10144 10123